Flag for USA

Past Weather in Washington County State Conservation Area, Illinois, USA — Yesterday and Last 2 Weeks

Now
66 °F

Clear.


Feels Like: 66 °F
Forecast: 79 / 62 °F
Wind: 12 mph from South

Location: Southern Illinois Airport

Current Time: May 19, 2019 at 3:33:25 am

Latest Report: May 19, 2019 at 2:52 am


Visibility: 10 mi

Pressure: 29.72 "Hg

Humidity: 87%

Dew Point: 62 °F

Location of Washington County State Conservation AreaLocation

Past Weather in Washington County State Conservation Area — Graph

°F

Washington County State Conservation Area Temperature Yesterday

Maximum temperature yesterday: 85 °F (at 1:52 pm)
Minimum temperature yesterday: 61 °F (at 5:52 am)
Average temperature yesterday: 74 °F

High & Low Weather Summary for the Past Weeks

 TemperatureHumidityPressure
High85 °F (May 16, 4:52 pm)100% (May 4, 5:36 am)30.17 "Hg (May 4, 5:36 am)
Low43 °F (May 14, 3:52 am)42% (May 14, 4:52 pm)29.69 "Hg (May 19, 1:52 am)
Average62 °F80%29.93 "Hg
* Reported May 4 2:07 am — May 19 1:52 am, Washington County State Conservation Area. Weather by CustomWeather, © 2019

Note: Actual official high and low records may vary slightly from our data, if they occured in-between our weather recording intervals... More about our weather records

Advertising

Washington County State Conservation Area Weather History for the Previous 24 Hours

Scroll right to see more
 ConditionsComfort  
Time TempWeatherWind HumidityBarometerVisibility
1:52 am
Sun, May 19
67 °FLight rain. Passing clouds.15 mph87%29.69 "Hg10 mi
12:52 am67 °FLight rain. Partly cloudy.10 mph90%29.75 "Hg10 mi
11:52 pm
Sat, May 18
67 °FPassing clouds.9 mph97%29.77 "Hg10 mi
10:52 pm67 °FPassing clouds.6 mph93%29.77 "Hg10 mi
9:59 pm68 °FHeavy rain. Fog.17 mph87%29.80 "Hg3 mi
8:52 pm75 °FClear.8 mph60%29.74 "Hg10 mi
7:52 pm77 °FSunny.10 mph56%29.73 "Hg10 mi
6:52 pm79 °FSunny.12 mph48%29.74 "Hg10 mi
5:52 pm83 °FSunny.16 mph44%29.77 "Hg10 mi
4:52 pm83 °FSunny.21 mph44%29.78 "Hg10 mi
3:52 pm84 °FSunny.20 mph45%29.79 "Hg10 mi
2:52 pm85 °FSunny.21 mph45%29.80 "Hg10 mi
1:52 pm85 °FPassing clouds.17 mph45%29.81 "Hg10 mi
12:52 pm84 °FSunny.24 mph46%29.83 "Hg10 mi
11:52 am82 °FSunny.16 mph51%29.85 "Hg10 mi
10:52 am81 °FSunny.23 mph56%29.86 "Hg10 mi
9:52 am79 °FSunny.15 mph62%29.88 "Hg10 mi
8:52 am76 °FSunny.10 mph69%29.90 "Hg10 mi
7:52 am73 °FSunny.10 mph74%29.89 "Hg10 mi
6:52 am68 °FSunny.6 mph87%29.89 "Hg9 mi
5:52 am61 °FFog.6 mph97%29.88 "Hg6 mi
4:52 am62 °FClear.5 mph96%29.86 "Hg9 mi
3:52 am65 °FClear.5 mph91%29.86 "Hg10 mi
Weather by CustomWeather, © 2019

See weather overview